SCP
0 0 0 0 0 0 0 0 1 3 4 4 3 3 2 2 2 2 2 1 1 1 2 2 2 2 2 2 2 2 2 2 1 1 1 1 0 0 0 0 0 0 1
0 0 0 0 0 0 0 0 1 2 4 4 3 3 2 2 2 2 2 1 1 1 2 2 2 2 2 2 2 2 2 2 2 1 1 1 0 0 0 0 0 1 1
0 0 0 0 0 0 0 0 0 2 4 4 3 2 2 2 1 1 1 1 1 1 1 1 1 1 1 2 2 2 2 2 2 2 1 1 1 0 0 0 0 1 1
0 0 0 0 0 0 0 0 0 1 3 4 3 2 2 1 1 1 1 1 1 1 2 2 1 1 1 2 2 2 2 2 2 2 1 1 1 0 0 0 0 1 1
0 0 0 0 0 0 0 0 0 1 2 3 3 2 2 1 1 1 1 1 1 2 2 2 2 2 2 2 2 2 2 2 2 2 1 1 0 0 0 0 0 1 1
0 0 0 0 0 0 0 0 0 0 1 2 2 2 2 2 1 1 1 1 1 1 1 2 2 2 2 2 2 2 2 2 2 2 1 1 1 0 0 0 0 1 1
0 0 0 0 0 0 0 0 0 0 0 1 1 2 2 2 2 1 1 1 1 1 1 1 2 2 2 2 3 2 2 2 2 2 1 1 1 1 0 0 0 0 0
0 0 0 0 0 0 0 0 0 0 0 0 0 1 1 2 2 2 1 1 1 1 1 1 1 2 2 2 3 3 2 2 2 1 1 1 1 1 0 0 0 0 0
0 0 0 0 0 0 0 0 0 0 0 0 0 0 0 1 1 1 1 1 1 1 1 1 1 2 2 2 3 3 3 2 2 1 1 1 1 1 0 0 0 0 0
0 0 0 0 0 0 0 0 0 0 0 0 0 0 0 0 0 1 1 1 1 1 1 1 1 1 2 2 2 2 2 2 2 2 1 1 1 1 0 0 0 0 0
0 0 0 0 0 0 0 0 0 0 0 0 0 0 0 0 0 0 0 0 1 1 1 1 1 1 1 1 2 2 2 2 2 2 1 1 1 1 0 0 0 0 0
0 0 0 0 0 0 0 0 0 0 0 0 0 0 0 0 0 0 0 0 0 0 1 1 1 1 1 1 1 1 1 1 1 1 1 1 1 0 0 0 0 0 0
0 0 0 0 0 0 0 0 0 0 0 0 0 0 0 0 0 0 0 0 0 0 0 1 1 1 1 1 0 0 1 1 1 1 1 1 1 0 0 0 0 0 0
0 0 0 0 0 0 0 0 0 0 0 0 0 0 0 0 0 0 0 0 0 0 1 1 1 1 1 1 0 0 0 0 1 1 1 1 0 0 0 0 0 0 0
0 0 0 0 0 0 0 0 0 0 0 0 0 0 0 0 0 0 0 0 0 1 1 1 1 1 1 0 0 0 0 0 0 0 0 0 0 0 0 0 0 0 0
0 0 0 0 0 0 0 0 0 0 0 0 0 0 0 0 0 0 0 0 1 1 1 1 1 1 1 0 0 0 0 0 0 0 0 0 0 0 0 0 0 0 0
0 0 0 0 0 0 0 0 0 0 0 0 0 0 0 0 0 0 0 0 0 1 1 1 1 1 0 0 0 0 0 0 0 0 0 0 0 0 0 0 0 0 0
0 0 0 0 0 0 0 0 0 0 0 0 0 0 0 0 0 0 0 0 0 0 0 1 1 1 0 0 0 0 0 0 0 0 0 0 0 0 0 0 0 0 0
0 0 0 0 0 0 0 0 0 0 0 0 0 0 0 0 0 0 0 0 0 0 0 0 1 1 0 0 0 0 0 0 0 0 0 0 0 0 0 0 0 0 0
0 0 0 0 0 0 0 0 0 0 0 0 0 0 0 0 0 0 0 0 0 0 0 0 1 1 0 0 0 0 0 0 0 0 0 0 0 0 0 0 0 0 0
0 0 0 0 0 0 0 0 0 0 0 0 0 0 0 0 0 0 0 0 0 0 0 0 0 0 0 0 0 0 0 0 0 0 0 0 0 0 0 0 0 0 0
0 0 0 0 0 0 0 0 0 0 0 0 0 0 0 0 0 0 0 0 0 0 0 0 0 0 0 0 0 0 0 0 0 0 0 0 0 0 0 0 0 0 0
0 0 0 0 0 0 0 0 0 0 0 0 0 0 0 0 0 0 0 0 0 0 0 0 0 0 0 0 0 0 0 0 0 0 0 0 0 0 0 0 0 0 0
0 0 0 0 0 0 0 0 0 0 0 0 0 0 0 0 0 0 0 0 0 0 0 0 0 0 0 0 0 0 0 0 0 0 0 0 0 0 0 0 0 0 0
0 0 0 0 0 0 0 0 0 0 0 0 0 0 0 0 0 0 0 0 0 0 0 0 0 0 0 0 0 0 0 0 0 0 0 0 0 0 0 0 0 0 0
0 0 0 0 0 0 0 0 0 0 0 0 0 0 0 0 0 0 0 0 0 0 0 0 0 0 0 0 0 0 0 0 0 0 0 0 0 0 0 0 0 0 0
Wind_Speed
3 2 2 2 1 1 1 1 1 2 2 1 2 2 2 2 1 1 1 1 2 1 1 1 1 1 2 2 2 3 3 2 2 2 1 1 0 0 0 0 0 1 0
3 2 2 2 2 1 1 1 2 2 3 2 2 1 2 2 1 1 1 1 2 2 2 2 2 2 2 2 2 2 3 2 2 2 2 2 1 1 1 1 1 1 1
5 3 2 3 2 2 2 2 2 3 3 2 1 2 2 2 2 2 1 1 2 2 2 3 2 2 2 2 2 2 3 3 2 2 2 3 2 1 1 1 1 1 1
4 3 3 3 3 3 2 3 3 3 3 3 3 4 3 3 2 2 1 1 2 2 3 3 3 3 2 2 3 3 2 3 3 2 1 2 0 2 2 2 1 2 2
4 4 4 4 3 3 2 3 3 3 3 3 4 4 4 3 2 3 3 2 2 3 3 3 3 3 2 3 3 3 3 3 3 3 2 2 1 2 2 2 2 2 2
4 4 3 3 2 2 2 3 3 3 3 3 4 4 5 4 4 4 4 3 2 3 3 3 3 3 3 3 3 3 4 4 4 3 3 3 3 3 2 3 3 3 2
4 3 3 3 3 3 3 3 4 4 4 3 4 5 5 6 6 5 5 4 3 3 4 4 4 3 3 4 4 4 4 5 5 4 3 3 3 2 2 2 2 2 2
3 4 4 4 4 4 4 4 5 5 4 4 4 4 5 4 4 6 5 5 4 4 4 5 5 5 4 4 4 4 4 4 5 5 5 3 3 3 3 2 2 2 2
4 4 4 4 4 4 4 5 5 5 5 4 4 4 5 5 5 5 6 5 5 4 5 5 5 5 5 5 5 4 5 5 5 5 5 4 3 3 3 3 3 3 4
5 5 4 4 4 4 5 4 4 5 5 4 4 4 5 5 5 5 6 6 6 6 6 6 6 6 6 6 6 5 5 5 5 4 5 5 4 3 3 4 4 4 4
6 5 5 4 4 4 4 4 4 4 4 4 4 5 5 5 5 5 6 6 7 7 7 7 7 7 7 6 6 6 6 7 6 6 6 6 5 4 4 4 4 4 4
6 5 5 5 4 4 4 4 4 4 4 5 5 5 5 5 5 6 6 6 7 7 7 7 7 7 7 7 7 7 7 8 8 8 7 7 5 6 5 4 5 5 5
6 6 5 5 5 5 4 4 4 4 4 4 5 5 5 5 6 6 6 6 6 6 6 7 7 7 7 7 7 8 8 8 8 8 8 8 7 7 6 6 5 4 4
7 7 6 6 5 5 5 4 4 4 4 4 5 5 6 6 6 6 5 5 6 6 6 6 7 7 7 7 7 8 8 8 8 8 8 8 8 8 7 6 6 5 5
8 7 7 7 6 6 5 5 5 4 4 4 5 5 5 5 5 5 5 5 5 5 5 5 6 6 6 6 7 7 8 8 8 8 8 8 9 10 8 6 6 6 5
8 8 8 7 7 6 6 5 5 5 4 5 5 5 4 4 4 4 4 4 4 4 4 5 5 6 6 8 9 8 7 7 8 8 8 8 8 10 11 11 11 9 8
8 8 8 7 7 6 6 6 6 5 4 5 4 4 4 4 4 4 3 4 4 4 4 5 5 6 7 8 9 10 7 7 7 8 7 6 6 8 7 9 10 11 11
9 8 7 7 7 6 6 5 5 4 4 4 4 4 4 4 3 3 3 4 4 4 4 5 5 6 6 7 7 8 7 6 7 7 8 8 7 7 8 7 7 8 8
8 7 7 6 6 6 5 5 4 4 4 4 4 4 4 3 3 3 4 4 3 4 4 4 5 5 5 6 7 7 5 5 6 7 7 8 8 9 10 8 7 7 7
7 7 6 5 5 5 5 4 4 4 4 5 5 5 4 3 4 4 4 4 3 4 4 4 4 5 5 5 6 6 4 4 5 5 6 9 9 9 10 8 7 8 7
6 6 5 5 5 5 4 4 4 5 5 5 5 4 4 4 4 4 3 3 3 3 3 3 3 4 4 5 6 6 4 4 4 4 4 5 8 10 10 9 7 8 7
6 6 5 5 5 4 4 5 5 5 5 4 4 4 4 4 3 3 3 3 3 3 3 3 3 3 3 4 5 6 6 5 4 4 4 5 8 9 9 7 7 9 7
6 5 5 5 5 4 4 5 5 5 4 4 4 4 4 3 3 3 3 3 3 3 2 2 3 3 2 3 5 6 6 7 5 4 5 6 7 7 6 7 8 6 4
6 5 5 6 6 5 4 5 5 4 4 4 4 4 4 3 3 3 3 2 2 3 3 3 3 3 3 3 3 3 3 5 5 4 5 6 6 5 5 5 5 4 4
5 5 5 6 6 6 5 5 4 4 4 4 4 4 3 3 3 3 2 3 3 3 3 3 3 3 3 4 5 4 3 3 3 3 2 3 3 3 3 3 3 3 3
5 5 5 6 6 6 5 5 4 3 4 4 4 3 3 3 3 2 2 3 4 4 5 4 4 4 4 5 5 5 5 4 4 3 3 3 3 3 3 3 3 3 4
Wind_Direction
251 253 258 263 264 232 249 308 256 222 217 219 206 179 170 160 152 136 143 156 152 157 146 141 151 164 160 159 170 172 162 154 153 150 135 95 74 107 9 273 220 215 233
240 242 251 257 262 256 250 267 260 233 227 236 237 211 185 175 166 175 173 176 170 164 164 157 167 169 162 157 161 165 177 169 181 194 182 183 195 166 304 240 220 235 230
240 238 251 260 261 264 254 249 252 232 226 219 212 184 173 176 187 193 190 201 198 184 183 179 172 179 177 180 182 184 180 183 188 205 209 193 201 187 208 243 232 238 242
251 246 253 266 265 263 261 252 255 243 226 211 204 199 198 203 208 210 216 214 207 197 198 193 181 182 190 189 192 191 195 190 189 199 245 273 219 197 192 207 220 243 248
262 255 251 251 259 267 265 263 259 256 233 223 212 206 203 206 202 205 210 218 214 208 206 200 193 190 199 203 201 200 197 199 200 199 203 208 219 231 210 220 219 229 244
273 268 269 261 260 272 270 262 258 263 257 237 223 219 211 204 206 211 212 218 220 215 214 210 207 200 205 214 213 211 209 207 209 208 206 206 203 203 208 222 225 238 244
287 282 277 270 272 282 283 271 257 257 254 245 235 229 222 214 215 215 217 219 223 226 221 216 215 211 211 215 217 214 217 214 212 215 221 227 230 224 225 213 230 245 256
293 280 273 269 269 277 281 275 261 258 251 244 244 243 233 221 223 222 223 221 225 229 225 221 217 216 215 215 215 215 219 217 217 220 223 232 234 225 220 214 214 235 246
303 289 282 279 277 280 282 277 272 266 258 251 248 246 245 236 229 227 228 228 229 232 225 221 221 220 218 219 216 218 218 217 220 222 222 226 231 232 228 220 213 223 239
314 306 296 289 289 289 290 289 280 272 269 263 257 257 253 249 239 230 231 230 229 229 225 221 221 222 220 219 219 221 222 217 221 222 225 229 229 229 229 222 221 231 235
318 310 309 305 301 300 296 295 291 287 281 273 266 257 253 249 246 239 237 234 233 230 228 223 222 222 222 221 221 224 225 221 222 223 225 228 229 228 231 230 225 225 223
320 316 315 315 310 303 298 296 293 288 286 280 270 261 258 251 247 245 244 237 234 231 231 226 222 221 221 222 223 226 228 223 222 222 224 227 225 228 229 232 226 225 223
320 320 317 313 307 302 297 293 293 289 289 282 272 265 261 255 251 251 248 242 235 232 230 227 223 221 221 223 225 227 229 226 226 226 226 227 225 228 227 227 227 228 229
310 312 310 306 307 305 299 298 297 293 290 283 273 264 260 257 255 254 251 246 238 232 231 230 229 226 224 224 225 228 228 228 230 230 231 230 228 229 229 225 229 228 224
312 310 308 307 307 306 302 301 299 298 290 279 273 267 264 260 257 254 252 248 246 240 236 234 234 231 227 224 224 228 229 228 230 231 232 233 233 235 231 227 226 224 222
309 311 310 310 307 304 303 301 299 297 289 279 275 272 266 260 256 255 254 251 250 248 244 239 238 238 234 228 229 233 233 231 230 233 235 235 234 233 232 233 233 231 224
307 310 310 309 306 304 302 297 297 298 292 288 284 277 266 260 260 259 255 251 253 250 249 249 244 245 243 236 232 232 237 237 235 234 235 236 231 231 231 234 237 237 238
306 307 311 311 311 309 308 303 301 299 296 297 299 292 283 273 269 261 255 258 257 252 253 252 252 250 248 243 240 235 237 239 235 234 232 233 232 229 231 234 236 237 236
305 308 311 311 312 313 314 309 305 305 304 304 303 300 291 281 276 270 266 265 259 257 256 256 252 249 251 246 244 242 238 238 241 237 234 232 233 232 231 232 235 241 246
311 313 317 316 314 318 320 309 307 310 307 307 306 305 295 282 275 271 270 267 259 257 258 259 256 252 254 251 248 245 240 240 244 241 235 234 237 236 232 229 229 238 242
312 315 314 311 312 320 318 306 307 304 306 311 309 304 299 288 279 274 269 266 261 261 260 263 266 262 259 257 249 247 246 241 245 244 241 238 240 245 243 238 235 242 247
312 313 312 312 317 319 312 305 304 308 315 313 309 305 302 296 287 280 275 269 264 258 262 268 275 274 268 263 252 246 250 255 249 249 248 246 247 248 248 246 244 248 247
308 312 308 309 315 315 307 299 306 313 312 311 308 307 305 298 288 277 272 267 258 253 257 260 266 275 277 272 270 259 256 261 259 254 254 257 253 254 249 246 246 245 241
305 307 305 304 309 313 305 297 307 310 304 305 307 307 303 301 293 278 266 258 253 253 254 254 260 268 269 270 270 266 258 254 258 260 251 251 254 251 252 246 241 238 238
301 302 297 298 303 311 310 311 309 308 303 302 301 300 297 295 293 284 278 270 264 257 257 261 265 265 265 270 277 278 270 257 247 259 254 248 243 235 235 236 235 234 235
297 300 298 299 302 309 310 313 311 304 298 299 303 302 302 299 297 298 302 299 290 292 280 282 282 281 288 300 283 279 284 277 263 244 246 248 242 240 237 236 236 236 234